Погода Грозный

Погода Грозный : погода сейчас, прогноз погоды и архив. Всё, что Вы хотите узнать о погоде Грозный!

Поиск расширенной информации на нашем сайте:

Другие новости

Новости СМИ2

Главная страница сайта

Новости сайта

02.10.2013

Напоминаем, что на нашем новом сайте вы можете получить высокодетализированные прогнозы погоды по пунктам России, СНГ и мира (включающие важные для авиации метеовеличины, такие как направление и скорость ветра, видимость, явления погоды, количество и форма облачности, нижняя и верхняя граница облачности), а также ознакомиться с разнообразными материалами по авиационной метеорологии и подборкой полезных ссылок на эту тему.

Сайт Метеоцентр.Азия посвящён разработке технологий оптимизации авиаметеорологического обслуживания, включая проектирование и перспективное создание нескольких автоматизированных авиаметеорологических систем:
- система выпуска высокодетальных прогностических карт явлений погоды для нижнего воздушного пространства по России и ближнему зарубежью;
- система верификации прогнозов TAF (выпускаемых синоптиками официальных АМСГ РФ и ближнего зарубежья) и AUTOTAF (выпускаемых сайтом Метеоцентр.Азия) - выявление ошибок, онлайн-сопоставление с фактической погодой METAR, автоматическое внесение коррективов в прогнозы при резком отклонении фактической погоды от прогноза, подсчёт оправдываемости прогнозов по элементам и в целом;
- система обработки, анализа и отображения авиаметеорологической информации для применения провайдерами метеорологической информации.

Рекомендуем: Наружные отопительные котлы - газовые котлы будерус.

Погода Грозный - сегодня

Время (UTC), дата Ветер
(°,м/с) 
Видим.   Явления Облачность Т
(°С)
Тd
(°С)
f(%) Тe
(°С)
Pmin
(гПа)
dP
(гПа)
Po
(мм)
O2
(г/м3)
Тmin Tmax R s Состояние
почвы
06 24.02.17 050 (СВ) 20000 м    10/10 1000 м 
[Sc]
+6.7 -1.1 57 +8  1017.5  2.8  740  291           
09 24.02.17 080 (В) 20000 м    4/0 средняя 
[Ac lent]
+13.8 +1.9 44 +15  1015.9  -0.7  739  283           
12 24.02.17 090 (В) 20000 м    3/0 средняя, верхняя 
[Ac lent|Ci fib]
+16 +1.2 37 +17  1015  -0.7  739  281           
15 24.02.17 080 (В) 10 км    ясно 
+12.1 +1.7 49 +12  1015.8  0.4  739  285    +16.1       
18 24.02.17 080 (В) 10 км    ясно 
+6.1 +0.6 68 +7  1017.1  0.6  739  291           
21 24.02.17 100 (В) 10 км    ясно 
+5.1 -0.4 68 +6  1017.3  0.1  739  292           
00 25.02.17 тихо ()   10 км    ясно 
+4.2 -1.4 67 +4  1016.9  -0.5  739  293           
03 25.02.17 070 (В) 10 км    ясно 
+3.9 -0.7 72 +5  1016.6  -0.3  739  294  +2.4         
06 25.02.17 300 (СЗ) 20000 м    ясно 
+11.4 +0.4 47 +13  1016.6  0.8  739  286  +2.2         
09 25.02.17 090 (В) 20000 м    ясно 
+16.9 +0.7 33 +18  1014  -2  738  280           
12 25.02.17 110 (В) 20000 м    3/0 верхняя 
[Ci fib]
+21.5 -1.4 22 +22  1010.8  -2.6  736  275           
15 25.02.17 130 (ЮВ) 10 км    8/0 средняя, верхняя 
[Ac lent|Ci fib]
+13.6 +2.5 47 +15  1010.7  -0.9  735  282    +21.5       
18 25.02.17 тихо ()   10 км    5/0 средняя 
[Ac lent]
+7.7 +2.2 68 +8  1009.9  -1.3  734  287           
21 25.02.17 160 (Ю) 10 км    4/0 средняя, верхняя 
[Ac lent|Ci fib]
+8.3 +0.3 57 +9  1009.3  -0.6  734  287           
00 26.02.17 260 (З) 10 км    4/0 средняя 
[Ac lent]
+8.6 +0.4 56 +9  1011.9  2.5  736  287           
03 26.02.17 280 (З) 10 км    10/10 600 м 
[Sc]
+8.1 +3.1 71 +8  1018  5.8  740  289  +4.6         
06 26.02.17 270 (З) 4-10{11}  4000 м  слаб. морось  10/10 300 м 
[St]
+2.9 +0.1 82 +1  1024.2  5.6  744  297  +2.9         
09 26.02.17 270 (З) 3{10}  4000 м  слаб. дождь со снегом{морось}  10/10 300 м 
[Ns]
+0.6 -0 96 -1  1027.7  746  300           
12 26.02.17 250 (З) 20000 м  {дождь, морось}  10/10 1000 м 
[Frnb]
+3 -5.8 52 +2  1027.8  0.4  747  298           
15 26.02.17 150 (ЮВ) 10 км    3/0 средняя 
[Ac lent]
+1.8 -4.6 62 +3  1027.9  0.1  747  299    +8.2  0.4     
18 26.02.17 170 (Ю) 10 км    ясно 
-0.3 -6.4 63 1028.8  0.5  747  302           
21 26.02.17 090 (В) 10 км    ясно 
-4 -6.3 84 -4  1028.7  -0.4  747  306           
00 27.02.17 090 (В) 10 км    ясно 
-3.1 -6.4 78 -3  1028.6  -0.2  747  305           
03 27.02.17 080 (В) 10 км    ясно 
-3.3 -6.5 78 -3  1028.3  -0.4  746  305  -4.6         
06 27.02.17 310 (СЗ) 20000 м    3/0 верхняя 
[Ci fib]
+1.1 -4.9 64 1026.9  -0.7  746  300           
Время (UTC), дата Ветер
(°,м/с) 
Видим.   Явления Облачность Т
(°С)
Тd
(°С)
f(%) Тe
(°С)
Pmin
(гПа)
dP
(гПа)
Po
(мм)
O2
(г/м3)
Тmin Tmax R s Состояние
почвы

Для получения пояснительной информации подведите курсор к названию столбца.

ПОГОДА Грозный - архив

Всё, что Вы хотите узнать о погоде Грозный - удобно и подробно!

Выберите нужную дату (начиная с 1 января 2015* года) и нажмите кнопку "Найти".
Будут отображены архивные сводки погоды по пункту Грозный, начиная с указанной даты.


Отображать данные в формате CSV (для использования в таблицах Excel)


Внимание! Наш архив погоды предназначен исключительно для личного некоммерческого использования в познавательных целях. Если Вам необходимы официальные справки о состоянии погоды (для производственных, юридических, коммерческих и т.п. целей), обращайтесь в органы Росгидромета.

*Примечание: данная дата относится к архиву по метеостанциям СССР (Россия, СНГ, Балтия).
Архив по метеостанциям Зарубежной Европы и Азии (кроме Китая) хранится 10 дней, по другим регионам земного шара (Китай, Африка, Америка, Австралия, Океания) - 1 день.

Грозный - район местоположения метеостанции


Название, широта, долгота, высота метеостанции:
Грозный 43.3°ш. 45.7°д. 163 м над ур. моря [Российская Федерация]

Дополнительная информация

В oтличие oт бoльшинства пoгoдных сайтoв мы публикуем пoдрoбную метеoинфoрмацию в детальнoм прoфессиoнальнoм фoрмате.

Характеристики температуры и влажнoсти вoздуха измеряются на высoте 2 м в тени вдали oт зданий и деревьев.
Скoрoсть ветра измеряется на высoте 10 м (на урoвне рoста челoвека скoрoсть ветра ниже в 1.5-2 раза). Если метеoстанция нахoдится в гoрoде или в лесу, тo скoрoсть ветра занижена на 2-4 м/с пo сравнению с oткрытым местoм. Скoрoсть ветра над акватoриями крупных рек и oзёр, а также на вершинах хoлмoв на 2-5 м/с выше, чем в oбычных услoвиях.
Атмoсфернoе давление в разных тoчках местнoсти мoжет значительнo oтличаться oт давления на метеoстанции, в зависимoсти oт услoвий рельефа (при пoдъёме на 10 м давление пoнижается примернo на 1 мм рт.ст.).